Location: Beverley
(50.2667°N, 107.9667°W)
Time: 07:43:43
(UTC+00:00)

EO-79 - Pass Details

Date: 02 July 2022
Orbit: 588 x 603 km, 98.0° (Epoch: 09 August)

Event Time Altitude Azimuth Distance (km) Brightness Sun altitude
Rises 07:33:59 0° 32° (NNE) 2,857 ? -16.6°
Reaches altitude 10° 07:37:35 10° 65° (ENE) 1,951 ? -16.5°
Maximum altitude 07:39:10 12° 87° (E) 1,830 ? -16.5°
Drops below altitude 10° 07:40:45 10° 109° (ESE) 1,947 ? -16.5°
Enters shadow 07:41:56 - 123° (ESE) 2,174 ? -16.5°
